Presure
230 95 132 97 98 113 170 169 196 200 177 177 176 172 168 127 130 142 120 126 168 104 107 176 96 91 142 85 93 89 98 110 116 117 96 115 114 103 101 117 111 112 101 102 85 84 89 112 83
224 221 133 100 104 89 139 121 90 166 137 149 160 161 125 124 178 128 184 110 120 148 142 143 136 95 97 94 91 92 97 110 104 109 102 102 103 115 114 115 117 116 130 128 123 111 117 81 77
219 225 225 228 97 178 92 152 177 135 150 121 154 161 176 112 159 125 130 121 144 153 160 167 107 100 97 117 134 90 112 113 103 95 99 106 114 110 110 112 113 116 141 107 101 84 78 117 90
209 190 217 221 226 229 94 93 102 143 147 160 170 158 170 123 128 153 128 183 119 115 101 98 108 112 176 107 127 118 147 116 121 118 119 121 122 114 122 110 112 115 144 132 118 153 117 103 169
82 207 213 212 125 218 228 123 99 210 176 162 147 145 109 123 110 102 113 112 124 123 125 123 121 120 104 122 104 100 126 127 113 123 117 123 116 116 104 110 115 112 125 118 124 116 117 135 116
160 196 192 200 203 201 186 220 159 193 175 220 215 205 184 104 119 151 137 111 114 113 104 183 127 128 154 120 106 110 118 116 115 151 114 136 157 175 110 115 113 113 118 158 146 156 110 108 119
168 96 166 170 175 99 196 176 83 88 117 219 196 223 168 220 134 111 113 109 107 123 128 99 120 143 115 121 113 152 128 119 113 126 169 124 148 135 108 115 120 149 144 152 137 106 117 114 145
169 154 85 85 81 85 173 107 187 96 91 201 189 100 190 228 197 105 120 131 106 109 116 115 110 111 123 116 113 107 115 124 111 129 139 134 108 168 132 147 166 149 133 123 163 121 105 144 171
130 100 83 83 89 163 86 78 154 84 86 83 174 83 99 100 195 123 104 100 111 108 109 113 114 114 116 117 114 123 119 115 129 188 124 104 163 143 106 176 130 113 114 101 115 164 164 155 151
153 175 169 160 79 127 106 80 82 82 177 84 127 185 192 201 209 91 204 167 119 116 101 115 123 111 111 121 113 118 127 125 107 128 147 150 130 154 126 148 157 137 146 138 140 148 137 143 180
158 158 164 148 164 81 163 181 89 89 111 157 89 132 83 90 183 94 111 99 200 226 102 96 179 110 109 107 109 138 125 120 120 125 128 127 133 150 118 121 171 117 144 132 152 139 139 137 123
177 178 177 174 179 172 147 128 82 80 79 156 82 172 168 88 144 165 90 242 92 104 109 103 119 103 108 102 94 117 133 128 168 127 129 127 110 110 110 136 159 153 127 120 157 144 118 165 121
178 182 169 178 175 148 166 173 170 170 79 188 119 135 178 84 169 88 88 88 77 83 128 89 118 239 218 195 220 196 204 184 163 151 112 110 148 110 184 109 100 128 136 114 114 113 157 117 111
141 177 153 177 179 174 158 152 172 166 124 192 167 159 127 127 88 90 157 132 88 94 149 96 131 185 170 103 176 230 201 199 186 139 106 101 107 124 104 107 104 112 97 102 108 109 108 108 109
158 137 139 161 143 172 183 137 137 175 156 161 177 80 87 194 76 151 260 530 183 84 92 91 217 121 190 91 93 103 217 197 194 104 115 105 105 108 104 103 108 109 116 105 105 139 103 103 113
134 136 166 132 171 171 133 172 179 186 157 156 171 191 178 204 237 81 116 78 107 156 128 168 174 82 81 84 153 95 99 102 102 169 170 182 119 111 121 111 110 125 105 112 108 102 103 107 104
192 177 180 122 131 158 145 141 128 187 188 158 153 187 123 172 151 231 218 147 134 142 104 105 131 155 122 199 90 90 164 90 84 93 150 108 105 101 138 104 111 149 162 103 114 112 111 103 107
201 194 137 195 139 184 134 176 140 121 129 190 149 147 141 138 197 225 204 222 199 190 232 130 214 219 215 112 116 82 82 165 92 89 124 105 195 181 193 195 158 106 175 109 121 110 111 151 105
203 204 217 217 226 146 167 149 141 141 131 129 197 144 150 148 160 200 197 211 205 206 204 125 148 182 210 193 110 212 175 189 183 84 94 205 163 116 100 219 97 182 212 109 96 125 133 183 104
200 204 203 207 210 214 217 219 213 128 162 131 179 147 147 138 166 141 197 213 190 202 192 206 183 131 185 177 204 205 211 215 187 202 234 209 121 117 127 95 148 94 92 94 96 92 112 98 102
194 215 226 206 210 243 202 199 202 137 126 129 178 202 148 174 211 135 175 187 132 166 121 191 180 169 147 168 186 179 171 197 177 186 173 176 224 211 189 85 238 99 85 142 127 140 96 94 97
207 188 198 225 215 197 203 209 229 199 207 136 125 135 171 200 184 173 174 174 184 207 175 203 196 184 178 203 215 185 193 198 212 165 193 188 186 200 216 210 184 204 228 222 184 183 109 118 208
259 246 247 243 252 204 223 201 226 235 234 219 120 117 204 135 134 181 179 194 187 195 180 197 192 190 203 183 191 210 184 197 196 208 186 193 157 198 175 183 199 181 184 180 177 195 203 212 140
265 263 253 227 238 221 228 228 250 239 238 273 219 204 206 188 168 160 179 197 182 200 183 193 180 167 180 202 180 198 212 189 199 204 173 196 185 169 197 191 184 199 170 183 173 193 166 195 207
254 255 255 260 260 255 249 240 229 238 248 227 264 211 202 208 219 213 186 179 187 217 190 199 180 183 188 192 181 189 192 191 195 199 200 197 195 176 206 193 192 189 201 188 168 173 187 170 187
246 251 253 252 246 247 252 250 243 246 250 223 212 245 238 226 201 216 184 185 190 183 193 133 188 191 179 191 196 181 191 194 194 200 199 214 161 223 207 176 189 185 181 195 224 207 203 215 187
224 231 236 244 252 253 257 252 256 251 241 251 253 205 207 193 223 213 198 203 173 216 198 209 218 211 191 201 198 219 182 195 208 199 211 212 227 218 180 173 212 229 175 168 175 173 184 186 166
204 204 212 219 229 236 234 234 242 253 250 245 251 261 223 214 200 215 217 218 224 217 195 190 201 209 229 233 221 230 201 200 204 210 200 205 216 205 219 201 228 226 165 205 189 202 206 187 180
220 209 211 213 211 213 222 224 228 239 248 253 245 252 258 253 219 211 218 205 203 194 195 177 180 204 213 212 223 225 247 239 198 220 198 213 227 231 223 234 222 233 202 214 204 200 199 204 194
215 216 225 224 223 204 208 211 219 221 233 243 247 234 250 252 247 220 218 218 212 205 195 200 219 191 180 182 189 212 218 219 227 242 246 238 232 220 209 211 202 211 209 202 201 202 198 197 202
Wind_Speed
29 31 40 31 28 27 47 40 48 56 47 50 48 49 49 37 37 41 33 34 42 28 27 37 24 22 37 16 19 16 19 21 23 21 13 19 19 16 15 16 16 15 13 15 14 14 15 16 12
18 22 32 34 30 27 39 35 33 41 40 42 43 45 39 39 53 38 53 35 34 39 35 34 33 27 26 23 21 20 22 25 22 22 21 20 19 21 19 18 18 18 20 18 18 18 17 11 7
18 18 22 26 32 52 31 43 47 43 44 38 46 48 51 34 48 40 39 35 42 43 45 44 31 30 29 31 36 21 28 26 26 20 21 24 25 23 21 20 19 21 25 19 21 17 13 20 17
18 29 20 23 23 24 32 32 35 43 43 47 50 48 51 40 41 47 37 53 38 36 32 32 33 33 44 31 32 31 39 29 30 31 31 31 31 26 29 23 22 23 30 25 24 31 22 24 34
29 19 19 20 28 23 23 33 37 50 49 49 46 48 36 42 39 35 36 36 36 36 37 35 34 34 35 33 33 31 35 34 29 34 33 35 31 30 24 26 28 25 29 26 28 25 25 29 27
30 22 26 22 24 29 26 23 30 31 35 36 51 58 58 34 41 50 45 37 36 33 35 58 36 36 48 36 34 33 33 32 32 38 34 37 40 41 30 32 27 29 30 39 37 39 27 28 28
26 33 35 36 35 32 30 31 34 38 34 36 40 41 44 55 42 36 38 38 38 41 38 32 39 43 37 37 36 45 38 36 35 38 48 38 42 38 32 34 36 40 38 40 36 29 31 30 39
34 36 38 37 35 35 37 36 36 40 39 36 41 35 50 41 54 36 42 48 41 42 42 44 41 40 41 38 36 37 37 39 38 42 43 41 37 50 41 43 46 44 37 35 44 34 34 39 47
42 40 41 42 43 37 39 38 36 36 39 34 43 23 37 37 56 38 38 38 44 44 43 43 40 39 38 39 38 42 41 40 42 50 42 39 46 44 35 50 38 33 37 33 37 49 50 47 44
44 41 41 42 39 39 35 42 41 41 41 42 40 50 53 48 50 30 66 56 45 46 41 45 48 40 41 47 39 41 45 44 41 43 48 51 48 56 43 49 52 45 46 43 44 43 41 42 49
47 43 47 47 48 45 46 45 47 45 42 42 44 40 28 29 59 33 37 35 62 80 44 35 68 40 41 38 38 48 48 45 43 44 45 44 45 50 44 44 57 42 46 46 50 43 42 40 33
50 48 48 49 47 50 49 44 44 42 44 51 42 59 60 32 51 57 34 65 31 31 39 43 48 45 47 43 37 51 60 55 59 45 47 45 43 43 43 46 61 59 42 40 57 48 35 62 33
52 52 50 50 50 51 56 53 49 46 44 49 45 47 48 35 40 36 38 37 32 36 45 36 45 78 74 58 79 66 72 64 67 66 47 45 55 45 64 40 39 44 45 41 41 38 63 37 37
56 56 55 54 51 54 58 49 46 54 53 46 60 58 53 52 42 42 33 50 38 46 52 49 55 56 57 42 61 82 73 66 66 56 47 44 46 51 44 45 44 45 42 42 41 41 39 40 42
61 57 57 58 54 56 55 50 52 51 53 54 55 51 49 57 25 31 33 27 57 41 49 45 69 46 58 36 34 42 68 77 71 45 49 49 48 47 47 46 46 47 46 46 44 56 44 44 45
60 61 65 58 61 59 56 62 56 51 58 55 58 57 41 48 46 39 30 31 30 46 52 47 49 37 34 35 59 43 42 46 46 67 72 72 55 53 56 50 49 53 48 49 50 48 48 48 47
75 68 68 64 61 61 59 61 56 55 61 58 57 44 51 60 50 32 20 20 61 43 47 47 48 54 44 50 48 44 45 41 32 40 65 49 49 46 63 50 53 72 79 50 55 52 50 49 50
77 74 70 77 65 66 65 69 58 63 61 55 60 58 48 52 40 26 23 15 27 40 30 55 53 64 63 42 42 42 40 45 49 44 52 50 86 73 81 86 74 48 80 50 54 51 53 69 51
77 76 80 82 82 66 70 70 64 59 65 60 55 61 60 57 54 40 33 26 35 34 32 55 50 53 59 65 52 60 58 55 48 40 48 70 70 51 43 85 45 79 86 53 50 71 75 75 53
77 81 80 81 77 69 73 74 83 62 64 65 60 69 64 58 58 55 39 29 40 34 43 40 55 48 58 62 65 61 64 67 45 52 65 67 50 51 57 50 66 49 48 49 49 50 55 53 56
77 81 83 78 76 75 67 69 77 67 68 68 66 57 64 58 43 62 55 44 65 53 53 58 58 60 61 42 59 48 57 59 57 57 62 64 67 58 52 48 68 51 47 69 64 68 57 54 56
79 80 79 81 79 68 67 66 74 79 71 69 70 70 63 53 56 60 58 58 54 63 55 66 72 67 70 75 70 64 64 64 69 64 64 58 63 65 58 56 53 66 74 82 79 77 58 62 71
78 86 80 81 77 73 72 60 70 77 74 71 73 73 61 75 69 62 62 64 63 68 66 71 76 75 73 59 68 76 65 74 69 75 64 72 68 60 72 61 62 67 63 72 75 67 68 71 71
69 66 73 77 77 70 69 70 58 72 74 64 69 67 65 61 70 68 70 58 67 77 74 79 71 69 70 87 68 80 87 72 87 80 78 83 72 74 74 70 71 72 71 68 79 67 82 73 77
64 66 69 66 67 65 68 70 65 69 69 68 67 68 68 65 62 63 72 74 71 66 76 92 79 79 85 89 75 83 81 86 90 91 92 83 85 74 78 74 77 72 74 74 72 70 78 72 75
62 62 61 63 64 62 64 63 62 65 65 73 69 67 69 70 67 66 72 78 74 73 68 62 87 93 73 90 102 75 90 93 93 96 88 97 73 83 94 75 75 75 71 74 75 77 74 76 78
65 61 64 63 59 56 53 54 56 63 70 69 70 71 70 72 70 68 67 78 80 65 77 74 72 97 91 99 95 105 88 103 109 100 111 97 83 97 72 67 90 81 72 69 74 76 77 80 78
78 79 75 67 62 58 56 59 60 60 66 69 69 70 71 72 73 71 72 71 71 69 83 82 78 72 63 70 84 88 117 111 111 111 96 96 105 97 96 82 94 89 74 79 76 76 77 79 83
82 82 82 80 75 69 64 64 63 63 63 65 66 66 70 76 76 76 77 74 74 79 85 85 85 83 66 72 68 66 61 87 116 100 112 111 104 93 97 92 89 86 77 78 73 77 79 85 84
90 85 84 82 75 79 76 72 69 69 66 61 63 69 68 75 82 83 82 82 80 78 79 82 71 88 87 85 81 67 65 70 70 71 84 90 92 78 78 79 77 82 85 84 79 82 82 88 100
Wind_Direction
234 224 230 224 223 226 238 235 239 240 247 249 248 244 246 231 235 244 229 235 242 226 230 244 233 235 241 222 239 224 249 250 248 248 241 245 247 256 260 267 260 265 244 243 236 233 239 277 231
230 234 227 227 220 206 236 226 220 235 234 237 235 242 226 226 253 234 250 226 230 240 236 239 239 234 238 235 240 243 247 247 247 246 245 246 244 256 256 259 267 260 273 271 271 268 269 242 256
224 226 225 231 216 238 221 234 236 230 236 227 233 238 248 222 245 230 235 235 241 240 243 241 228 229 232 241 242 238 245 245 247 244 245 243 251 252 256 259 257 264 278 255 253 236 250 272 262
230 230 228 230 236 239 218 231 231 237 242 237 237 241 244 235 240 244 230 246 228 230 225 225 228 233 245 233 243 246 249 246 246 252 255 255 256 253 263 256 260 266 275 273 270 270 273 270 272
221 229 234 236 219 237 241 228 226 241 239 240 241 239 228 230 223 227 226 233 235 232 238 236 235 234 231 240 234 239 244 247 244 251 255 255 255 254 252 256 261 258 268 266 268 263 266 272 273
237 227 234 233 237 241 234 243 235 239 239 239 242 244 244 228 225 244 239 229 235 227 234 244 240 242 241 239 236 241 243 240 243 247 251 255 255 252 257 260 260 261 263 271 274 276 261 264 274
228 228 239 239 241 220 239 240 234 235 240 246 245 255 245 253 238 225 227 228 235 233 240 234 239 248 240 244 244 248 247 244 241 250 252 248 252 259 257 259 262 260 270 270 273 264 263 263 277
241 245 228 227 222 223 241 243 247 228 239 253 245 234 248 267 249 232 234 237 236 239 235 234 234 235 244 240 242 244 247 249 246 254 258 254 252 256 259 265 258 267 264 264 268 265 265 282 274
238 235 231 229 230 240 225 241 251 240 242 248 249 229 233 237 263 238 229 233 228 241 245 239 240 244 246 246 241 249 247 246 255 248 252 255 256 262 254 257 260 259 258 262 265 269 270 272 277
238 250 249 244 232 239 248 234 238 246 256 253 255 260 262 261 253 225 257 249 239 231 246 245 243 242 242 251 246 251 250 250 250 253 251 248 259 262 257 263 263 259 268 266 270 270 271 274 276
250 247 249 238 250 236 248 247 233 232 256 256 248 251 233 231 262 230 243 233 250 243 239 241 242 246 248 244 245 247 253 250 248 249 253 254 255 255 255 254 256 260 264 267 265 268 271 272 274
253 250 248 246 250 246 241 245 234 237 251 246 255 261 261 242 241 253 237 266 225 232 232 239 243 240 243 241 247 248 254 254 248 249 253 251 246 249 253 262 261 261 258 258 269 268 266 273 272
256 256 247 252 244 245 249 246 246 244 245 248 253 252 266 242 265 236 237 241 248 251 254 259 249 238 240 246 245 248 249 245 249 252 241 244 248 245 261 254 260 260 264 261 264 265 272 272 266
246 252 244 252 250 246 249 245 246 244 241 255 256 256 249 260 250 251 257 234 236 245 246 252 249 237 238 249 238 245 247 249 247 247 253 259 250 255 255 251 254 251 268 264 262 266 269 273 274
246 245 245 245 243 245 256 236 240 255 251 251 251 251 253 279 231 270 316 235 235 244 248 252 232 244 239 249 247 253 245 245 249 248 249 255 257 255 257 260 258 255 253 260 260 274 261 264 269
242 244 249 243 249 248 240 253 250 253 252 251 248 272 266 285 306 242 246 240 224 230 243 244 244 251 254 257 245 254 250 252 249 243 247 244 252 257 257 259 257 261 258 258 257 262 264 262 269
254 252 252 239 243 248 246 246 234 254 260 249 254 260 235 266 250 288 266 230 244 233 249 247 245 247 249 236 255 256 251 259 257 259 251 251 250 255 253 255 257 264 263 256 262 258 260 266 265
259 258 250 256 243 250 246 254 242 241 246 254 255 256 243 240 282 272 263 181 222 234 226 245 226 228 229 248 253 258 261 248 261 263 257 259 252 254 258 262 255 254 260 257 267 262 261 273 264
259 258 259 259 258 244 249 248 244 244 247 243 257 256 257 254 256 249 262 241 220 217 226 245 245 239 236 236 250 250 237 246 252 258 262 248 259 254 257 257 256 263 264 260 257 277 277 273 261
260 259 258 258 257 256 257 258 261 237 248 245 249 255 256 245 260 246 260 228 240 210 229 213 246 246 247 253 256 257 255 258 248 265 251 253 252 258 257 255 259 257 262 267 268 268 269 266 266
256 258 258 257 258 259 251 253 258 237 239 243 252 247 249 249 253 245 260 250 250 238 246 230 244 245 246 245 249 246 240 258 244 246 244 244 251 257 268 250 255 257 261 265 267 269 266 269 269
255 252 255 260 255 249 250 252 257 255 253 239 246 249 249 245 233 251 240 256 249 212 251 228 231 252 246 247 245 256 257 268 264 253 263 251 262 264 266 266 256 259 259 261 269 269 267 264 276
255 259 258 259 258 252 256 246 255 257 253 251 242 251 243 253 250 236 240 232 241 237 251 240 238 246 239 263 260 249 262 269 268 262 249 267 262 255 252 250 266 252 254 258 263 273 278 275 272
255 254 255 254 257 254 256 252 252 256 255 247 246 243 244 233 237 242 240 231 238 227 241 237 253 253 259 245 262 262 249 263 264 260 259 269 262 257 265 263 259 267 268 254 260 270 270 271 276
253 252 252 253 255 254 254 254 249 250 250 248 239 242 241 240 238 241 230 241 240 234 236 229 249 250 250 250 264 264 260 267 268 266 268 266 265 253 267 258 269 260 266 263 266 273 263 273 273
255 254 255 254 252 251 250 250 247 247 244 246 242 235 235 237 235 237 235 232 233 243 238 253 239 242 253 248 251 261 259 264 266 265 268 267 252 267 269 261 256 260 262 266 267 269 275 278 277
255 256 255 253 249 248 248 248 247 243 244 239 238 237 238 240 236 237 230 224 242 234 232 233 240 239 245 244 250 249 257 260 260 261 261 266 260 269 260 259 272 269 269 268 272 272 271 271 273
247 248 248 249 250 246 242 244 244 241 240 241 238 236 237 238 241 237 236 237 241 235 234 238 237 237 243 242 247 245 249 253 257 258 262 264 267 268 266 270 271 270 263 271 269 275 276 275 277
251 248 249 248 243 242 242 241 244 243 240 238 239 236 234 232 234 237 235 236 234 232 227 244 246 236 241 243 242 245 250 246 252 255 262 262 261 257 267 265 265 269 267 272 273 271 275 277 276
249 247 248 249 248 242 241 241 243 243 244 240 236 236 234 231 229 233 235 234 235 236 233 232 240 239 248 251 251 244 244 245 248 252 252 254 260 260 259 262 262 270 269 271 271 273 274 276 277